Regional Weather Roundup
Issued by NWS

Home | Current Version | Previous Version | Text Only | Print | Product List | Glossary Off
Versions: 1 2 3 4 5 6 7 8 9 10 11 12 13 14 15 16 17 18 19 20 21 22 23 24 25 26 27

000
ASUS45 KTFX 271910
RWRMT
MONTANA REGIONAL WEATHER ROUNDUP
NATIONAL WEATHER SERVICE GREAT FALLS MT
100 PM MDT SUN MAY 27 2018

NOTE: "FAIR" INDICATES FEW OR NO CLOUDS BELOW 12000 FEET WITH NO
SIGNIFICANT WEATHER AND/OR OBSTRUCTIONS TO VISIBILITY.

MTZ001>007-043-272000-
WEST OF THE DIVIDE

CITY           SKY/WX    TMP DP  RH WIND       PRES   REMARKS
KALISPELL      FAIR      69  50  50 CALM      30.09S
MISSOULA       FAIR      70  49  47 SW5       30.08F
BUTTE          PTSUNNY   66  46  48 N5        30.13F
MULLAN PASS    FAIR      57  40  52 N5        30.21S
ANACONDA         N/A     64  46  52 N8        30.11F
DEER LODGE       N/A     66  48  52 N5        30.12F
HAMILTON         N/A     66  46  48 MISG      30.09F
RONAN            N/A     70  48  46 VRB5      30.11F
$$

MTZ008-052>055-272000-
SOUTHWEST MONTANA

CITY           SKY/WX    TMP DP  RH WIND       PRES   REMARKS
BOZEMAN        FAIR      68  51  54 VRB6      30.08F
DILLON         FAIR      68  49  50 NE13G21   30.07F
ENNIS          CLOUDY    66  50  55 NW20      30.10F
W YELLOWSTONE  FAIR      61  41  48 NE12      30.09F
$$

MTZ009-010-012-014-046-048-049-054-272000-
EAST SLOPES AND CENTRAL MONTANA

CITY           SKY/WX    TMP DP  RH WIND       PRES   REMARKS
CUT BANK       FAIR      71  34  25 CALM      30.08S
GREAT FALLS    FAIR      75  45  34 NW6       30.07S
MALMSTROM AFB  FAIR      72  47  40 W5        30.06F
HELENA         FAIR      75  49  39 SE8       30.04F
AUGUSTA        PTSUNNY   68  43  40 NW6       30.11S
BOWMANS CRNR   FAIR      67  48  49 NE7       30.09S
CHOTEAU          N/A     72  41  33 NE5       30.11S
FAIRFIELD      FAIR      71  41  34 E5        30.08F
POWER          FAIR      71  41  33 CALM      30.07F
RAYNESFORD     FAIR      70  51  49 W5        30.08F
ULM            FAIR      71  46  41 CALM      30.07F
WHITE SULPHUR    N/A     70  48  46 SW6       30.08F
$$

MTZ011-013-016-021-045-047-050-051-272000-
NORTH CENTRAL MONTANA

CITY           SKY/WX    TMP DP  RH WIND       PRES   REMARKS
HAVRE          FAIR      79  47  32 SW8       30.01S
LEWISTOWN      FAIR      71  52  50 VRB6      30.08S
N BAR RANCH    FAIR      72  52  49 N10G16    30.12S
CHINOOK          N/A     79  46  31 S6        30.01
DENTON         FAIR      77  49  37 NE6       30.03F
GEYSER         FAIR      70  49  47 CALM      30.07F
GRASS RANGE    FAIR      72  54  52 NE7       30.04S
JUDITH GAP     FAIR      68  54  60 N12       30.09F
ROY            FAIR      73  52  48 NW9       30.04F
STANFORD       FAIR      69  49  48 NE8       30.09F
WINIFRED       FAIR      72  51  47 NW5       30.06S
$$

MTZ017>020-022>027-061-062-272000-
NORTHEAST MONTANA

CITY           SKY/WX    TMP DP  RH WIND       PRES   REMARKS
GLASGOW        FAIR      82  47  29 NE16      29.97S
GLENDIVE       FAIR      74  61  63 NW9       29.96F
JORDAN           N/A     75  59  57 NE12G20   30.00R
MALTA          SUNNY     79  45  29 E9        29.98S
SIDNEY         FAIR      75  62  64 NW7       29.94S
WOLF POINT     FAIR      78  58  49 N9        29.96S
PLENTYWOOD       N/A     75  57  53 MISG      29.95F
POPLAR           N/A     73  57  56 MISG      29.96S
$$

MTZ028>42-056>058-272000-
SOUTHCENTRAL AND SOUTHEAST MONTANA

CITY           SKY/WX    TMP DP  RH WIND       PRES   REMARKS
BAKER          FAIR      76  56  49 NW16G23   29.97R
BILLINGS       PTSUNNY   67  54  63 N13       30.02F
LIVINGSTON     FAIR      67  51  56 E5        30.08F
MILES CITY     FAIR      75  60  59 SE5       29.98R
BIG TIMBER     SUNNY     64  54  68 VRB5      30.10S
HARLOWTON      PTSUNNY   68  49  49 CALM      30.09R
LAUREL           N/A     64  55  72 SW6       30.05F
ROUNDUP          N/A     73  50  44 N9        29.97S
$$

REGIONAL REPORTS...DAKOTAS

CITY           SKY/WX    TMP DP  RH WIND       PRES   REMARKS
WILLISTON      CLOUDY    78  59  51 N7        29.94S
MINOT          FAIR      80  57  45 VRB5      29.86F
DICKINSON      FAIR      77  56  48 N12G22    29.88R
BEACH          FAIR      73  55  53 N9G18     29.99S
CROSBY         FAIR      73  64  73 NW10G17   29.94F
TIOGA          FAIR      75  63  64 NW8       29.95R
WATFORD CITY   FAIR      77  61  57 N10       29.91S
BISMARCK       FAIR      79  60  52 NE10      29.84R
GRAND FORKS    PTSUNNY   77  63  61 N12       29.82S
FARGO          FAIR      76  62  62 S14       29.75S
BUFFALO SD       N/A     78  56  46 NW18      29.86R
RAPID CITY     FAIR      80  58  46 N17       29.87F
$$

REGIONAL REPORTS...WYOMING/IDAHO/WASHINGTON

CITY           SKY/WX    TMP DP  RH WIND       PRES   REMARKS
GILLETTE       PTSUNNY   71  55  56 N18       30.01R
SHERIDAN       FAIR      66  54  65 NW12G18   30.03F
BUFFALO WY     FAIR      68  54  60 N21G28    30.06S
CODY           FAIR      67  47  48 N12G17    30.08F
YELLOWSTONE LA   N/A     58  37  45 SE6       30.18S
IDAHO FALLS    PTSUNNY   70  51  51 N12       29.93F
SALMON         FAIR      71  45  39 VRB3      30.03F
BOISE          FAIR      76  50  40 NW20      29.94F
SPOKANE        FAIR      66  43  43 SW8       30.14F
$$

REGIONAL REPORTS...ALBERTA

CITY           SKY/WX    TMP DP  RH WIND       PRES   REMARKS
CALGARY        PTSUNNY   68  36  30 VRB3      30.06F
CARDSTON         N/A     72  39  30 W3          N/A
EDMONTON       MOSUNNY   66  37  34 W7        30.03F
FORT MCMURRAY  SUNNY     68  36  30 W15G24    29.89R
HIGH LEVEL     MOSUNNY   66  36  32 S6        29.79S
LETHBRIDGE     PTSUNNY   73  37  27 NW12G18   30.04F
LLOYDMINSTER   PTSUNNY   70  36  28 NW14G21   30.03S
MEDICINE HAT   MOSUNNY   77  50  38 SW12G17   29.97F
MILK RIVER       N/A     75  41  29 NW13G18     N/A
ONEFOUR          N/A     77  43  29 NW9         N/A
PEACE RIVER    CLOUDY    64  36  34 W20G29    29.93F
PINCHER CREEK    N/A     70  39  32 VRB5      30.07F
WATERTON GATE    N/A     70  39  32 SE5         N/A
$$

REGIONAL REPORTS...SASKATCHEWAN

CITY           SKY/WX    TMP DP  RH WIND       PRES   REMARKS
CORONACH         N/A     77  46  33 N16G23      N/A
CYPRESS HILLS    N/A     70  46  43 SE9         N/A
ESTEVAN        PTSUNNY   75  61  60 SW10      29.92S
MOOSE JAW        N/A     77  28  16 N13G18      N/A
PRINCE ALBERT  MOSUNNY   73  37  27 NW14G29   29.97S
REGINA         PTSUNNY   75  39  27 N17       29.98S
ROCKGLEN         N/A     73  43  33 N14G22      N/A
SASKATOON      MOSUNNY   72  41  33 NW9G18    30.02S
SWIFT CURRENT  SUNNY     73  37  27 NE12G20   30.04S
VAL MARIE        N/A     77  37  24 NE12G17     N/A
$$




USA.gov is the U.S. government's official web portal to all federal, state and local government web resources and services.